Tracking 30995 objects as of 7-Jul-2025
HD Live streaming from Space Station
objects crossing your sky now

COSMOS 1275 DEB

Track COSMOS 1275 DEB now!
10-day predictions


NORAD ID: 13796
Int'l Code: 1981-053GT
Perigee: 877.9 km
Apogee: 1,043.6 km
Inclination: 83.0 °
Period: 104.1 minutes
Semi major axis: 7331 km
RCS: 0.0167 m2 (small)
Launch date: June 4, 1981
Source: Commonwealth of Independent States (former USSR) (CIS)
Launch site: PLESETSK MISSILE AND SPACE COMPLEX (PKMTR)

Note: This is SATELLITE DEBRIS
Your satellite tracking list
STARLINK-1485
Track 1 satellite(s)




NASA's NSSDC Master Catalog

Two Line Element Set (TLE):
1 13796U 81053GQ  25187.57962596  .00000885  00000-0  75909-3 0  9999
2 13796  83.0231  39.0690 0113042  24.0033   5.4823 13.82900149135036
Source of the keplerian elements: AFSPC